{"data":{"norad_id":42695,"intl_designator":"2017-024A","name":"GSAT-9","alt_names":[],"object_type":"PAYLOAD","status":"ACTIVE","operator":null,"country":"IND","launch_date":"2017-05-05","launch_site_code":"SRILR","launch_vehicle":null,"mission":null,"orbit_class":"UNKNOWN","rcs_meters":null,"size_class":null,"mass_kg":null,"dimensions":null,"purposes":["comms"],"wikipedia_slug":null,"has_3d_model":false,"image_url":null,"decayed_at":null,"tle_current":{"epoch":"2026-05-25T00:46:59.136960Z","epoch_age_seconds":71963,"freshness":"FRESH","line1":"1 42695U 17024A   26145.03262890 -.00000288  00000+0  00000+0 0  9995","line2":"2 42695   0.0482 263.1348 0002054 164.2222 284.3145  1.00269319 33069","mean_motion":1.00269319,"eccentricity":0.0002054,"inclination_deg":0.0482,"raan_deg":263.1348,"arg_perigee_deg":164.2222,"mean_anomaly_deg":284.3145,"bstar":0,"rev_number":3306,"period_min":1436.1322230582,"perigee_km":35778.625506735,"apogee_km":35795.94706262,"semimajor_km":42165.423284677,"source":"CELESTRAK","updated_at":"2026-05-25T13:38:14.043842Z"}}}